Tracking 29781 objects as of 15-Oct-2024
HD Live streaming from Space Station
objects crossing your sky now

ARIANE 42L R/B

Track ARIANE 42L R/B now!


NORAD ID: 22655
Int'l Code: 1993-031C
Perigee: 297.7 km
Apogee: 27,676.7 km
Inclination: 5.2 °
Period: 481.8 minutes
Semi major axis: 20358 km
RCS: 22.5158 m2 (large)
Launch date: May 12, 1993
Source: France (FR)
Launch site: FRENCH GUIANA (FRGUI)

Note: This is a ROCKET BODY
Your satellite tracking list
Your tracking list is empty




NASA's NSSDC Master Catalog

Two Line Element Set (TLE):
1 22655U 93031C   24288.96100360  .00008163  00000-0  30846-2 0  9996
2 22655   5.1806 287.6014 6724326 344.2368   2.2593  2.98877816297533
Source of the keplerian elements: AFSPC